Temperature
28 28 28 29 30 31 31 31 31 31 32 32 32 32 32 31 30 30 29 28 27 26 24 23 22 21 20 20 19 19 18 18 18 18 18 18 18 18 18 18 18 18 18 18
28 28 29 31 31 31 31 30 31 31 32 32 32 31 32 31 30 30 29 28 27 25 24 22 21 21 20 19 19 18 18 18 18 18 18 18 18 18 18 18 17 17 17 18
28 30 31 31 31 31 31 31 31 31 32 32 31 30 30 30 29 29 29 28 27 26 24 22 21 20 20 19 19 18 18 18 18 18 18 18 17 17 17 17 17 17 17 18
29 31 31 31 30 31 30 32 32 31 31 30 30 28 28 28 27 27 28 27 27 26 24 22 21 20 19 19 18 18 18 18 18 17 17 17 17 17 17 17 17 17 17 17
29 30 30 30 31 31 31 32 32 31 30 29 29 28 28 28 27 26 27 27 27 26 24 22 21 20 19 19 18 18 18 18 18 17 17 17 17 17 17 17 17 17 17 17
31 32 32 31 32 32 32 31 31 30 29 27 27 27 27 28 27 27 28 27 27 25 24 23 21 20 19 19 18 18 18 17 17 17 17 17 17 17 17 17 17 17 17 17
29 31 32 32 31 31 31 30 28 27 26 26 27 27 27 29 29 29 29 28 27 25 24 22 21 20 19 19 18 18 17 17 17 17 17 17 17 17 17 17 17 17 17 17
28 29 31 32 31 30 30 30 27 26 25 25 25 25 27 29 30 29 29 28 27 25 24 22 21 20 19 19 18 18 17 17 17 17 17 17 17 17 17 17 17 17 17 17
29 29 31 32 32 31 30 30 30 28 26 24 23 24 26 28 29 29 29 28 26 25 24 23 22 20 19 19 18 18 17 17 17 17 17 17 17 17 17 17 17 17 17 17
30 29 31 32 32 32 31 30 29 28 26 25 24 24 24 26 27 28 28 27 26 25 24 23 22 20 20 19 18 18 17 17 17 17 17 16 17 17 17 17 17 17 17 17
30 29 29 30 30 30 30 30 29 28 28 27 25 24 26 25 27 27 27 27 26 25 24 23 22 20 20 19 18 18 17 17 17 17 16 16 17 17 17 17 17 17 17 17
30 29 28 29 31 31 30 30 29 27 27 27 26 25 25 24 26 26 26 26 26 25 25 23 22 21 20 19 18 18 17 17 17 17 17 17 17 17 17 17 17 17 17 17
29 28 27 27 28 29 29 30 29 29 28 27 26 25 25 25 25 26 27 26 26 25 24 23 22 21 20 19 18 18 17 17 17 17 17 17 17 17 17 17 17 17 17 17
29 28 27 26 26 27 27 28 29 28 27 27 27 25 25 25 25 26 26 26 25 25 24 23 22 21 20 19 18 18 18 17 17 17 17 17 17 17 17 17 17 17 17 17
28 27 28 27 27 27 26 27 28 28 28 27 26 25 25 24 25 25 25 25 25 24 24 22 21 21 20 19 19 18 18 18 17 17 17 17 17 17 17 17 17 17 17 17
27 26 27 26 27 27 26 27 27 27 28 27 26 25 25 24 24 24 24 24 24 23 23 22 21 20 20 19 19 18 18 18 18 18 17 17 17 17 17 17 17 17 17 17
26 25 25 25 26 26 25 26 27 27 28 27 26 25 25 24 24 23 23 23 23 22 22 21 21 20 20 19 19 19 19 18 18 18 18 18 17 17 17 17 17 17 17 17
24 24 24 25 25 24 26 27 27 27 27 27 26 25 24 23 22 22 21 21 21 21 21 20 20 20 19 19 19 19 19 18 18 18 18 18 17 17 17 17 17 17 17 17
24 24 24 24 24 24 25 26 26 25 25 25 24 24 23 22 22 20 20 19 19 19 19 19 19 20 19 19 19 19 19 18 18 18 18 17 17 17 17 17 17 17 17 17
24 24 23 23 23 23 23 24 25 25 23 23 23 23 22 22 21 19 18 18 18 18 18 18 19 19 19 19 19 19 18 18 18 18 18 17 17 17 17 17 17 17 17 17
22 22 22 22 22 22 21 22 24 23 21 22 21 21 21 20 19 18 18 17 17 17 17 17 18 18 18 18 18 18 18 17 17 17 17 17 17 17 17 17 17 16 16 16
21 22 22 22 21 20 20 21 20 19 20 20 20 19 19 18 17 17 16 16 16 16 16 16 16 16 16 17 17 17 17 17 17 17 17 17 17 16 16 16 16 16 16 16
22 21 21 20 19 19 18 18 18 18 19 19 18 18 18 17 17 16 15 15 15 15 15 15 15 15 15 15 16 16 15 16 16 16 16 16 16 16 15 15 15 15 15 15
21 21 20 19 19 18 18 18 17 17 17 17 17 17 17 16 15 15 14 14 14 14 14 14 14 14 14 14 14 14 15 15 15 15 15 15 15 15 15 15 15 14 14 14
19 20 19 18 18 18 17 16 16 16 16 16 16 16 15 14 14 13 13 13 13 13 13 13 13 13 13 13 13 14 14 14 14 14 14 14 14 14 14 14 14 14 14 13
19 19 19 18 18 17 16 15 15 15 15 15 15 14 14 13 13 12 12 12 12 12 12 12 12 12 12 12 13 13 13 13 13 14 14 14 14 14 14 13 13 13 13 13
Wind_Speed
16 15 17 18 20 18 16 16 13 8 7 10 11 10 8 8 8 8 8 9 9 10 12 11 12 13 14 13 13 14 14 13 11 10 10 9 8 7 6 6 10 11 11 10
16 20 20 19 17 17 16 16 14 8 8 10 10 10 8 7 9 8 9 9 9 10 11 12 12 12 13 13 14 14 15 15 13 10 9 8 8 7 7 6 9 11 11 10
22 16 19 19 17 16 15 15 13 10 10 11 10 11 8 5 4 5 7 9 10 11 13 13 13 12 13 13 14 14 14 14 14 12 9 8 7 6 6 7 8 8 10 10
19 20 15 16 17 16 15 15 14 13 12 9 9 9 6 5 5 7 6 7 9 10 12 13 13 13 12 13 13 12 13 13 13 13 12 13 11 9 9 8 8 8 9 9
17 18 18 17 16 16 15 13 13 12 12 12 9 8 6 7 6 7 8 9 9 10 11 12 12 12 11 12 12 12 12 13 13 13 12 12 10 9 8 9 10 9 8 8
18 17 17 17 16 15 14 13 12 10 10 12 11 10 6 6 6 8 10 9 9 10 10 10 10 10 10 11 12 12 12 13 14 14 13 12 11 10 10 10 10 9 7 7
18 18 17 14 15 15 15 12 9 8 9 10 8 8 5 7 8 7 8 10 10 10 9 9 10 11 11 11 11 11 13 13 14 14 13 12 11 11 11 11 10 9 8 7
16 16 17 15 16 13 15 14 10 8 6 5 6 7 4 5 7 7 8 9 9 10 10 9 9 10 11 11 11 12 12 13 13 13 12 11 11 9 9 10 9 10 7 7
12 14 15 16 15 16 14 13 13 11 7 5 5 6 4 1 5 6 8 10 8 9 10 9 9 10 10 11 11 12 12 12 12 12 11 10 11 10 10 10 8 8 6 8
12 9 12 14 13 16 15 12 8 10 8 8 6 6 4 4 5 6 7 9 9 9 10 10 9 9 9 10 10 11 12 12 11 11 11 11 11 10 9 9 9 7 7 8
15 11 10 12 14 14 13 15 10 8 9 9 6 3 1 3 0 3 6 7 9 10 10 10 10 10 10 9 10 11 11 11 11 11 10 10 11 11 10 9 8 7 7 9
13 10 9 11 10 10 13 13 11 9 8 8 7 2 2 2 3 1 6 7 8 9 10 11 11 11 11 10 9 10 11 12 12 11 10 10 10 10 10 10 9 8 8 8
9 8 9 9 9 9 11 12 11 10 8 9 8 2 5 3 1 1 6 8 9 9 10 11 10 11 11 11 10 10 11 12 12 12 11 11 11 10 10 10 9 9 9 9
7 8 11 10 7 6 10 12 11 10 9 9 6 3 4 2 1 1 5 7 8 9 9 10 9 9 9 9 10 10 11 12 13 12 12 11 10 10 10 10 10 10 10 10
7 11 12 9 7 8 10 12 11 11 11 8 4 3 4 3 3 3 5 7 7 8 8 9 8 8 8 8 8 9 10 10 11 12 12 11 10 10 9 9 9 10 10 11
6 8 9 10 10 8 10 11 10 12 9 5 5 3 3 4 5 7 5 4 6 6 5 7 7 8 8 8 8 8 8 9 9 10 11 10 10 10 10 9 9 9 9 9
7 6 9 10 9 9 11 10 9 9 7 6 4 2 6 5 6 7 5 4 5 5 4 4 5 6 6 6 7 8 8 9 9 10 10 10 11 10 10 11 10 10 10 9
6 6 7 9 9 11 6 4 5 5 3 2 5 7 8 8 9 10 8 5 5 6 5 4 3 4 5 5 5 6 8 8 9 9 9 10 11 11 11 10 9 9 8 8
7 7 7 7 9 8 3 1 2 1 1 7 9 8 8 9 10 10 8 7 9 9 7 6 4 3 3 4 5 6 6 7 7 8 7 8 9 9 9 9 8 8 7 7
7 6 7 7 8 7 1 6 5 1 2 7 8 7 6 4 3 5 7 10 10 10 8 7 7 6 6 3 4 6 5 5 5 6 6 6 6 7 6 6 6 6 6 6
8 7 9 10 9 3 4 6 5 2 2 6 7 7 7 6 5 6 9 10 10 9 9 9 9 9 7 6 6 6 5 4 4 4 5 5 5 6 5 4 4 4 4 4
6 6 7 7 7 2 7 5 4 4 4 6 7 7 8 9 9 10 11 11 11 11 11 11 11 11 10 9 8 9 7 5 4 5 5 5 5 4 4 4 4 4 4 4
2 1 1 1 2 7 6 6 5 4 4 5 6 6 7 9 10 11 12 11 12 12 11 11 12 12 12 11 10 9 7 6 7 8 7 7 7 6 5 5 5 3 3 2
2 4 4 4 6 8 8 9 8 7 7 6 6 7 9 11 12 12 11 11 11 11 12 12 13 14 13 12 12 10 8 7 8 8 8 8 8 8 7 6 6 5 3 2
1 2 3 5 7 7 8 9 9 9 9 10 12 12 13 14 14 13 12 12 12 12 12 12 12 12 12 11 11 11 9 8 8 8 7 7 7 7 7 7 7 6 6 5
2 2 2 4 6 6 7 7 9 10 10 11 13 14 13 14 15 14 13 12 12 12 12 12 13 13 12 11 11 11 9 8 7 7 6 5 5 5 6 7 8 12 9 10
Wind_Direction
211 222 229 231 232 243 263 280 274 261 242 235 241 244 229 191 209 213 193 176 173 172 166 165 170 170 168 169 169 171 172 169 168 169 174 171 174 171 166 161 158 169 170 166
214 225 235 243 245 244 251 261 267 262 245 244 249 253 244 208 216 209 188 181 177 170 159 160 166 169 173 174 174 175 175 173 174 174 173 171 168 173 172 164 159 172 170 166
222 227 224 238 248 249 250 254 258 257 258 253 256 255 244 225 231 240 197 179 179 174 165 165 171 175 180 180 180 185 179 176 176 170 169 168 160 174 170 162 166 176 171 173
230 239 236 231 238 243 248 252 261 262 262 260 254 261 221 219 208 232 209 192 177 169 164 169 173 177 183 184 183 179 177 176 174 172 176 174 173 178 175 170 169 175 175 176
226 230 236 239 240 238 247 256 259 263 264 268 264 261 240 205 195 214 197 200 179 165 166 170 176 177 180 183 181 179 178 180 177 179 180 179 180 181 174 171 168 173 178 182
239 230 230 236 239 239 242 251 258 259 260 254 256 254 242 192 195 200 189 183 162 157 159 163 167 164 170 179 178 177 178 181 179 180 182 183 182 181 176 173 168 173 176 184
236 238 230 230 235 229 230 237 243 247 245 255 274 260 225 184 182 178 167 161 152 150 151 158 163 167 173 178 177 177 177 180 180 181 183 186 185 184 181 177 174 177 178 182
224 231 224 219 228 228 225 232 232 245 250 274 305 277 243 178 154 143 148 146 145 149 150 155 162 163 171 174 173 174 174 178 179 181 183 185 184 184 185 185 180 183 183 178
228 227 220 214 221 231 231 232 236 245 249 261 249 267 284 154 131 142 150 142 149 150 145 153 157 157 163 166 167 169 169 172 176 178 178 182 185 188 185 182 183 181 178 171
252 252 225 208 214 225 235 232 240 250 252 255 243 226 231 196 185 164 155 145 144 148 145 149 148 152 155 156 158 163 166 168 167 172 178 181 184 186 181 178 183 179 173 162
239 250 236 212 212 224 224 237 241 257 264 266 259 233 303 319 41 137 137 141 146 152 144 145 144 146 146 152 161 164 168 167 168 173 180 177 180 183 178 179 182 175 164 159
225 239 244 231 224 234 236 239 241 249 265 278 278 228 216 329 333 177 143 143 144 146 145 144 143 145 148 156 162 165 169 170 171 173 176 177 176 177 178 181 182 174 166 166
220 233 238 238 234 233 240 235 241 245 249 259 266 219 173 209 230 219 138 138 136 132 134 136 139 144 152 156 158 167 172 172 173 174 178 177 176 178 182 183 180 176 173 178
235 231 244 242 231 232 254 253 245 244 244 246 253 193 184 226 104 133 117 119 128 129 128 132 135 141 148 155 159 167 173 175 174 175 180 180 181 182 185 184 181 181 180 183
236 232 241 246 228 243 258 260 255 251 253 254 246 230 198 180 136 91 84 107 125 127 133 136 142 145 149 155 161 169 173 175 175 176 182 182 182 183 187 186 186 184 184 190
227 253 250 246 234 237 251 256 261 260 255 240 225 214 136 132 113 90 71 75 98 112 126 139 144 151 158 164 169 173 176 175 174 179 184 182 182 184 187 188 188 187 191 194
226 245 254 251 240 232 239 246 245 258 262 237 234 152 119 93 76 77 71 63 84 92 94 116 145 150 158 171 175 175 178 175 179 184 186 185 186 188 190 195 191 192 193 195
247 249 245 248 245 242 236 238 256 258 293 17 82 93 90 97 83 69 53 47 57 66 67 69 83 140 159 170 172 173 176 175 182 187 191 189 190 193 193 195 193 193 191 193
224 224 241 248 245 250 239 306 285 231 72 64 86 86 86 97 95 70 54 58 62 59 54 46 44 77 120 151 163 161 166 172 178 183 187 187 186 189 188 190 190 188 186 193
210 211 235 245 252 255 286 349 353 89 114 61 81 84 87 100 88 73 61 66 62 56 49 46 47 56 67 89 138 146 161 162 171 177 179 178 172 175 183 185 181 181 184 191
206 209 224 239 248 249 10 341 332 273 95 60 74 76 73 68 80 93 78 69 64 60 53 52 54 54 49 57 84 105 110 121 144 149 143 141 144 152 155 156 158 162 173 177
213 218 222 229 235 224 19 13 33 51 51 68 75 82 87 96 98 92 83 75 68 63 59 61 61 56 47 49 68 75 69 68 86 98 102 109 111 130 145 135 137 143 157 163
195 137 86 63 96 87 76 78 77 80 74 73 87 93 97 104 99 93 86 79 73 68 64 63 66 62 53 48 55 65 61 67 73 76 79 82 86 82 77 93 104 107 116 149
60 79 102 100 99 88 81 80 74 72 76 77 87 93 101 100 98 94 88 83 76 69 65 65 65 63 55 49 48 48 51 64 76 78 78 80 82 80 72 71 71 74 71 79
34 68 117 123 117 100 80 77 77 74 79 84 85 85 94 98 96 93 89 82 78 74 70 68 67 64 58 52 48 43 44 56 71 76 81 84 85 91 83 76 63 70 61 58
56 104 132 122 124 117 104 90 86 84 83 85 88 88 88 92 95 93 89 85 82 79 74 71 69 66 59 54 49 44 38 45 57 66 69 87 99 102 106 104 83 57 69 70
Height
1452 1455 1453 1448 1442 1441 1439 1439 1438 1434 1427 1431 1434 1434 1432 1436 1441 1443 1446 1450 1455 1460 1464 1469 1473 1478 1481 1484 1487 1491 1495 1500 1505 1509 1514 1519 1524 1528 1532 1535 1537 1541 1544 1547
1449 1450 1443 1437 1434 1434 1436 1441 1438 1432 1427 1430 1432 1433 1429 1432 1437 1439 1442 1447 1452 1457 1462 1467 1471 1475 1478 1481 1484 1488 1491 1496 1501 1505 1511 1516 1521 1525 1530 1533 1536 1539 1542 1545
1444 1436 1433 1435 1434 1435 1435 1437 1435 1435 1428 1425 1432 1438 1434 1432 1434 1439 1441 1444 1448 1454 1459 1464 1468 1471 1475 1477 1480 1483 1487 1492 1497 1502 1508 1514 1519 1524 1528 1531 1534 1537 1540 1543
1435 1429 1428 1431 1433 1433 1438 1428 1428 1429 1435 1438 1436 1451 1440 1435 1437 1439 1441 1443 1446 1451 1457 1461 1464 1468 1471 1474 1477 1480 1484 1489 1494 1499 1505 1509 1514 1519 1523 1527 1531 1535 1538 1541
1430 1426 1427 1430 1427 1426 1429 1423 1425 1428 1434 1441 1441 1449 1445 1436 1439 1440 1439 1442 1444 1448 1454 1458 1461 1464 1467 1470 1473 1477 1481 1486 1491 1496 1501 1507 1512 1516 1521 1525 1528 1532 1535 1538
1420 1418 1419 1421 1420 1421 1422 1425 1427 1430 1437 1454 1447 1451 1449 1436 1436 1435 1435 1438 1441 1446 1451 1455 1459 1462 1465 1468 1471 1474 1478 1482 1488 1492 1498 1503 1509 1513 1518 1521 1525 1529 1533 1536
1424 1417 1413 1415 1420 1420 1422 1435 1451 1458 1460 1459 1444 1446 1441 1427 1426 1428 1431 1435 1439 1445 1449 1453 1456 1459 1462 1466 1469 1471 1474 1479 1484 1489 1494 1500 1505 1510 1514 1518 1522 1526 1530 1533
1430 1428 1413 1412 1417 1422 1423 1430 1453 1468 1471 1465 1454 1454 1435 1421 1422 1425 1429 1434 1438 1443 1448 1452 1454 1457 1460 1464 1466 1469 1472 1476 1481 1486 1491 1497 1502 1507 1511 1516 1520 1524 1527 1530
1420 1422 1406 1407 1410 1414 1423 1426 1426 1442 1455 1469 1465 1454 1436 1423 1423 1425 1428 1432 1438 1442 1446 1451 1454 1456 1460 1462 1465 1468 1470 1474 1478 1483 1488 1493 1498 1504 1509 1514 1518 1521 1525 1528
1410 1419 1407 1404 1408 1410 1413 1418 1429 1440 1457 1467 1461 1456 1452 1435 1429 1426 1429 1432 1437 1442 1446 1450 1453 1456 1459 1463 1465 1468 1471 1473 1477 1481 1486 1490 1495 1501 1506 1511 1515 1519 1523 1525
1408 1418 1414 1408 1414 1417 1418 1420 1423 1429 1432 1450 1461 1459 1436 1434 1429 1428 1429 1433 1436 1440 1445 1449 1453 1457 1459 1463 1465 1468 1471 1474 1477 1481 1485 1490 1494 1499 1504 1508 1513 1517 1520 1523
1405 1412 1419 1412 1404 1405 1410 1415 1421 1437 1440 1437 1445 1453 1432 1432 1431 1431 1431 1433 1436 1440 1444 1448 1453 1457 1460 1463 1465 1468 1471 1474 1477 1480 1484 1489 1493 1498 1502 1506 1510 1514 1517 1521
1405 1414 1429 1427 1421 1413 1413 1412 1415 1420 1429 1437 1444 1449 1431 1432 1431 1431 1431 1433 1435 1439 1443 1448 1453 1456 1460 1462 1465 1468 1470 1473 1477 1480 1484 1488 1492 1496 1500 1504 1507 1511 1514 1518
1405 1413 1422 1432 1429 1422 1422 1416 1415 1421 1430 1434 1435 1439 1434 1433 1433 1432 1431 1434 1437 1440 1444 1448 1453 1457 1460 1463 1465 1467 1470 1474 1477 1480 1483 1487 1491 1495 1498 1502 1505 1508 1512 1515
1405 1413 1413 1414 1417 1419 1422 1419 1416 1418 1419 1427 1432 1434 1434 1433 1433 1434 1434 1435 1438 1441 1445 1449 1452 1456 1459 1463 1466 1468 1470 1473 1476 1479 1483 1486 1490 1494 1497 1500 1503 1506 1510 1513
1408 1414 1414 1418 1415 1418 1422 1418 1417 1418 1416 1421 1428 1432 1430 1432 1433 1435 1438 1439 1440 1443 1446 1449 1452 1455 1458 1462 1464 1467 1469 1472 1475 1478 1481 1485 1488 1492 1495 1498 1501 1504 1507 1510
1411 1418 1422 1424 1417 1422 1430 1419 1418 1418 1413 1418 1426 1428 1428 1432 1435 1438 1440 1442 1442 1445 1448 1450 1452 1454 1457 1460 1462 1465 1468 1471 1474 1477 1480 1483 1486 1490 1493 1496 1499 1502 1504 1507
1417 1421 1422 1423 1426 1438 1421 1410 1412 1415 1415 1414 1420 1425 1429 1434 1438 1441 1443 1444 1446 1447 1449 1451 1453 1454 1456 1459 1461 1464 1467 1469 1472 1475 1478 1481 1484 1487 1490 1493 1496 1499 1502 1504
1413 1419 1421 1424 1430 1427 1418 1414 1414 1418 1422 1421 1425 1429 1433 1436 1439 1444 1446 1447 1448 1448 1450 1452 1453 1454 1456 1458 1460 1462 1465 1467 1470 1473 1475 1478 1481 1484 1487 1490 1492 1495 1498 1501
1410 1415 1423 1426 1433 1436 1429 1419 1417 1420 1431 1429 1430 1432 1436 1437 1443 1450 1450 1450 1450 1450 1452 1452 1453 1454 1455 1457 1459 1461 1463 1466 1468 1471 1473 1476 1478 1481 1483 1486 1489 1492 1494 1497
1417 1419 1424 1428 1432 1429 1428 1424 1421 1434 1440 1436 1436 1437 1440 1443 1448 1452 1452 1452 1452 1453 1454 1454 1454 1455 1456 1457 1459 1460 1463 1465 1468 1470 1472 1474 1475 1478 1480 1483 1486 1489 1491 1494
1419 1422 1424 1425 1433 1439 1432 1430 1434 1440 1438 1437 1439 1441 1443 1447 1450 1452 1453 1454 1454 1455 1455 1455 1455 1457 1458 1459 1459 1460 1463 1465 1467 1469 1470 1472 1474 1477 1479 1481 1484 1486 1489 1491
1415 1420 1423 1429 1436 1435 1435 1437 1439 1440 1439 1440 1442 1444 1446 1448 1451 1453 1455 1456 1457 1457 1458 1459 1459 1459 1461 1461 1462 1463 1465 1466 1467 1469 1470 1472 1474 1476 1478 1480 1482 1484 1487 1489
1419 1419 1424 1430 1434 1437 1439 1439 1440 1440 1441 1443 1444 1446 1448 1450 1453 1455 1458 1459 1460 1461 1461 1462 1462 1462 1464 1465 1465 1466 1467 1468 1469 1470 1472 1473 1475 1477 1478 1480 1482 1483 1486 1487
1423 1424 1427 1432 1436 1438 1442 1442 1443 1444 1444 1445 1447 1449 1451 1453 1455 1458 1460 1462 1463 1464 1465 1466 1466 1467 1468 1468 1469 1469 1469 1470 1471 1472 1474 1475 1477 1479 1480 1481 1483 1484 1486 1487
1425 1427 1430 1434 1436 1439 1444 1445 1445 1446 1448 1448 1450 1453 1455 1456 1459 1461 1463 1466 1467 1469 1469 1470 1471 1471 1472 1472 1472 1473 1473 1474 1474 1475 1476 1478 1479 1481 1482 1483 1484 1485 1487 1488